�N����,����,�~����,�C��,���x,�C��,����,���ϕ���,�ő�u�ԕ���,�ő厞����,���˗�,�I�_���x,�n�����x,�ő啗���N��,DTYPE
"19/07/07","00:10",0.0,23.1,82.3,997.7,331.3,1.1,1.8,339.2,0.00,20.0,23.5,"00:06:00",1
"19/07/07","00:20",0.0,22.9,82.7,997.7,330.0,0.7,1.4,344.4,0.00,19.8,23.4,"00:14:40",1
"19/07/07","00:30",0.0,22.8,83.1,997.7,301.8,1.0,1.3,321.2,0.00,19.8,23.6,"00:24:08",1
"19/07/07","00:40",0.0,22.8,83.7,997.9,327.0,1.5,2.5,333.4,0.00,19.9,23.5,"00:37:04",1
"19/07/07","00:50",0.0,22.6,84.6,997.9,295.9,1.2,2.0,319.3,0.00,19.9,23.5,"00:46:48",1
"19/07/07","01:00",0.0,22.4,85.1,998.2,319.5,1.5,2.5,331.7,0.00,19.8,23.3,"00:59:30",1
"19/07/07","01:10",0.0,22.5,85.3,998.2,308.4,1.3,2.4,324.7,0.00,19.9,23.5,"01:03:28",1
"19/07/07","01:20",0.0,22.5,85.2,997.9,327.2,1.2,2.0,321.8,0.00,19.9,23.4,"01:12:08",1
"19/07/07","01:30",0.0,22.5,85.4,997.7,310.2,1.5,2.6,259.3,0.00,20.0,23.5,"01:28:08",1
"19/07/07","01:40",0.0,22.5,85.2,997.7,304.8,1.2,2.1,328.3,0.00,19.9,23.2,"01:39:36",1
"19/07/07","01:50",0.0,22.5,85.1,997.9,318.2,1.6,2.9,338.2,0.00,19.9,23.3,"01:47:52",1
"19/07/07","02:00",0.0,22.6,85.1,997.7,336.0,1.2,2.0,323.2,0.00,20.0,23.3,"01:55:04",1
"19/07/07","02:10",0.0,22.4,85.2,997.7,310.9,1.2,2.0,340.6,0.00,19.8,23.2,"02:01:28",1
"19/07/07","02:20",0.0,22.4,85.4,997.7,302.2,1.1,2.0,330.9,0.00,19.9,23.3,"02:13:52",1
"19/07/07","02:30",0.0,22.3,85.7,997.9,325.2,1.1,1.8,335.2,0.00,19.8,23.2,"02:23:20",1
"19/07/07","02:40",0.0,22.4,86.2,997.7,316.8,0.5,1.0,306.4,0.00,20.0,23.2,"02:33:20",1
"19/07/07","02:50",0.0,22.3,86.7,998.2,334.3,0.5,1.4,321.8,0.00,20.0,23.2,"02:49:44",1
"19/07/07","03:00",0.0,22.2,87.3,998.2,319.1,1.5,2.0,327.0,0.00,20.0,23.2,"02:57:52",1
"19/07/07","03:10",0.0,22.0,87.5,998.2,330.6,1.1,1.8,322.5,0.00,19.9,23.2,"03:04:40",1
"19/07/07","03:20",0.0,22.1,88.0,998.6,327.7,1.1,1.7,324.9,0.00,20.1,23.3,"03:12:40",1
"19/07/07","03:30",0.0,22.0,88.1,998.2,332.4,1.3,1.9,330.2,0.00,20.0,23.1,"03:26:48",1
"19/07/07","03:40",0.0,21.9,88.2,998.4,325.1,1.1,1.8,330.4,0.00,19.9,23.0,"03:34:48",1
"19/07/07","03:50",0.0,21.9,88.1,998.2,309.7,1.0,1.4,308.6,0.00,19.9,22.9,"03:45:52",1
"19/07/07","04:00",0.0,22.0,88.0,998.4,338.2,0.5,1.4,322.0,0.00,20.0,23.0,"03:51:04",1
"19/07/07","04:10",0.0,22.1,88.0,998.4,340.1,0.6,1.4,317.8,0.00,20.1,23.0,"04:08:08",1
"19/07/07","04:20",0.0,22.0,88.5,998.6,307.5,1.2,1.8,312.5,0.00,20.1,23.1,"04:16:48",1
"19/07/07","04:30",0.0,22.0,88.5,998.4,330.8,1.0,1.8,324.1,0.00,20.1,23.1,"04:20:24",1
"19/07/07","04:40",0.0,21.9,88.8,998.4,310.7,0.8,1.4,333.9,0.00,20.0,23.1,"04:30:16",1
"19/07/07","04:50",0.0,21.7,89.0,998.9,305.3,1.0,1.6,315.7,0.00,19.8,23.0,"04:46:56",1
"19/07/07","05:00",0.0,21.7,89.2,998.9,320.7,1.2,1.8,341.7,0.00,19.9,23.2,"04:50:56",1
"19/07/07","05:10",0.0,21.5,89.1,998.6,327.8,2.0,3.1,335.8,0.00,19.7,22.8,"05:03:04",1
"19/07/07","05:20",0.0,21.7,88.6,998.6,310.8,1.6,2.6,319.4,0.00,19.8,22.9,"05:19:52",1
"19/07/07","05:30",0.0,21.7,88.2,998.6,316.2,1.7,2.8,328.5,0.00,19.7,22.8,"05:24:08",1
"19/07/07","05:40",0.0,21.7,87.9,998.9,311.9,1.2,1.9,328.0,0.00,19.6,22.8,"05:36:16",1
"19/07/07","05:50",0.0,21.6,88.1,998.9,311.9,1.5,2.4,312.5,0.00,19.6,22.8,"05:48:08",1
"19/07/07","06:00",0.0,21.6,88.0,998.9,320.1,1.1,1.8,324.7,0.00,19.6,22.8,"05:51:04",1
"19/07/07","06:10",0.0,21.7,88.4,999.3,297.5,1.1,1.4,318.7,0.00,19.7,22.7,"06:00:24",1
"19/07/07","06:20",0.0,21.7,88.8,999.6,310.7,1.0,1.7,342.6,0.00,19.8,22.7,"06:10:40",1
"19/07/07","06:30",0.0,21.8,89.0,999.6,316.0,0.7,1.6,323.4,0.00,19.9,22.7,"06:24:00",1
"19/07/07","06:40",0.0,21.9,88.8,999.3,313.9,0.6,1.3,316.4,0.00,20.0,22.8,"06:30:02",1
"19/07/07","06:50",0.0,22.1,88.8,999.6,280.7,0.5,1.4,323.5,0.01,20.2,22.9,"06:40:08",1
"19/07/07","07:00",0.0,22.1,87.9,999.6,311.7,0.5,1.2,337.6,0.03,20.0,22.9,"06:55:44",1
"19/07/07","07:10",0.0,22.4,87.3,999.6,290.9,1.0,1.4,320.3,0.04,20.2,22.8,"07:09:36",1
"19/07/07","07:20",0.0,22.7,86.6,999.8,276.9,0.7,1.3,263.8,0.05,20.4,23.0,"07:17:52",1
"19/07/07","07:30",0.0,22.9,85.7,999.6,295.3,1.0,2.0,321.8,0.05,20.4,22.8,"07:28:16",1
"19/07/07","07:40",0.0,23.2,84.3,999.8,269.6,0.8,1.8,251.5,0.07,20.4,23.0,"07:35:12",1
"19/07/07","07:50",0.0,23.4,82.0,999.6,291.5,1.0,1.9,349.6,0.08,20.2,23.1,"07:43:52",1
"19/07/07","08:00",0.0,23.7,80.7,999.6,292.7,1.2,3.2,248.1,0.08,20.2,23.0,"07:59:36",1
"19/07/07","08:10",0.0,24.0,79.8,999.3,285.5,1.1,2.0,241.8,0.09,20.3,23.2,"08:02:00",1
"19/07/07","08:20",0.0,24.6,77.3,999.3,302.1,0.8,2.1,319.9,0.15,20.4,23.2,"08:10:32",1
"19/07/07","08:30",0.0,24.6,76.0,999.3,18.9,0.8,2.4,354.1,0.14,20.1,23.4,"08:28:00",1
"19/07/07","08:40",0.0,25.0,75.8,999.6,113.5,0.6,1.3,105.9,0.15,20.5,23.5,"08:31:44",1
"19/07/07","08:50",0.0,25.7,73.1,999.1,326.3,0.8,3.1,345.5,0.26,20.6,23.7,"08:47:44",1
"19/07/07","09:00",0.0,25.6,72.1,998.9,349.7,1.1,3.6,350.4,0.21,20.2,23.8,"08:56:08",1
"19/07/07","09:10",0.0,25.8,71.8,998.6,36.3,1.0,3.1,347.2,0.22,20.4,23.8,"09:00:24",1
"19/07/07","09:20",0.0,25.3,73.5,998.9,354.7,1.8,4.1,348.2,0.16,20.3,24.1,"09:11:44",1
"19/07/07","09:30",0.0,26.2,72.6,998.6,352.3,1.8,4.1,353.9,0.28,20.9,24.3,"09:25:44",1
"19/07/07","09:40",0.0,26.5,69.7,998.6,358.7,2.1,4.7,342.2,0.43,20.6,24.5,"09:39:04",1
"19/07/07","09:50",0.0,25.8,72.4,998.2,343.6,2.1,5.5,337.2,0.24,20.5,24.5,"09:40:16",1
"19/07/07","10:00",0.0,26.3,71.4,998.2,354.0,2.2,5.6,347.3,0.36,20.8,24.7,"09:56:32",1
"19/07/07","10:10",0.0,26.0,72.2,997.9,341.1,3.0,6.8,348.0,0.36,20.6,24.8,"10:04:48",1
"19/07/07","10:20",0.0,26.5,70.0,997.9,341.3,2.8,5.8,342.8,0.50,20.6,24.9,"10:10:16",1
"19/07/07","10:30",0.0,26.8,68.7,998.2,328.4,1.8,4.1,340.1,0.42,20.6,25.2,"10:22:16",1
"19/07/07","10:40",0.0,26.7,68.7,998.2,292.3,1.7,4.3,340.2,0.36,20.5,25.4,"10:32:40",1
"19/07/07","10:50",0.0,25.6,72.4,998.4,349.9,2.8,5.2,345.7,0.19,20.3,25.4,"10:45:04",1
"19/07/07","11:00",0.0,25.4,73.0,997.9,342.5,3.4,6.3,313.1,0.22,20.2,25.4,"10:52:32",1
"19/07/07","11:10",0.0,26.5,72.1,997.9,344.5,2.8,4.5,342.4,0.37,21.1,25.6,"11:01:20",1
"19/07/07","11:20",0.0,27.4,67.3,997.4,344.5,3.0,5.7,336.2,0.62,20.8,25.7,"11:14:40",1
"19/07/07","11:30",0.0,27.3,66.9,998.2,342.0,2.8,6.0,322.1,0.55,20.7,25.8,"11:24:32",1
"19/07/07","11:40",0.0,27.7,66.1,997.7,343.3,2.7,5.8,340.1,0.53,20.8,26.2,"11:35:20",1
"19/07/07","11:50",0.0,27.5,66.4,998.2,344.5,2.5,5.1,340.8,0.45,20.7,26.3,"11:42:32",1
"19/07/07","12:00",0.0,27.9,65.2,998.4,352.2,1.8,4.3,348.5,0.52,20.8,26.7,"11:56:00",1
"19/07/07","12:10",0.0,28.4,64.4,998.2,342.8,2.1,4.5,344.7,0.42,21.1,26.9,"12:00:48",1
"19/07/07","12:20",0.0,28.7,62.7,997.9,337.7,1.7,4.1,332.5,0.55,20.9,26.9,"12:13:04",1
"19/07/07","12:30",0.0,27.1,67.9,997.4,341.1,2.3,4.7,353.1,0.23,20.7,27.0,"12:29:04",1
"19/07/07","12:40",0.0,28.3,63.0,998.2,350.2,2.2,4.8,347.5,0.59,20.6,27.1,"12:32:08",1
"19/07/07","12:50",0.0,28.4,63.0,997.7,338.8,2.5,4.9,351.3,0.43,20.7,27.3,"12:41:12",1
"19/07/07","13:00",0.0,28.9,59.9,997.9,299.6,1.2,3.4,319.1,0.59,20.4,27.5,"12:53:52",1
"19/07/07","13:10",0.0,28.7,60.3,998.4,297.8,1.6,4.0,354.3,0.49,20.3,27.8,"13:00:24",1
"19/07/07","13:20",0.0,27.4,64.4,997.9,313.8,2.2,3.7,335.5,0.16,20.1,27.7,"13:15:44",1
"19/07/07","13:30",0.0,27.9,63.4,997.7,333.2,2.0,3.6,350.6,0.18,20.3,27.7,"13:28:32",1
"19/07/07","13:40",0.0,28.7,62.2,997.4,342.4,2.7,5.2,348.3,0.45,20.8,27.7,"13:32:24",1
"19/07/07","13:50",0.0,29.8,60.4,998.2,346.2,2.3,5.9,344.7,0.67,21.3,27.6,"13:41:44",1
"19/07/07","14:00",0.0,29.4,60.3,998.4,5.0,2.0,4.3,351.9,0.59,20.9,27.6,"13:55:12",1
"19/07/07","14:10",0.0,29.2,60.3,998.2,0.7,2.1,5.4,344.0,0.49,20.8,27.6,"14:00:08",1
"19/07/07","14:20",0.0,29.0,59.4,998.4,347.2,2.2,4.9,330.5,0.52,20.3,27.4,"14:16:08",1
"19/07/07","14:30",0.0,29.0,60.1,998.6,324.0,1.8,4.2,338.8,0.44,20.5,27.5,"14:22:56",1
"19/07/07","14:40",0.0,29.6,58.2,998.2,323.4,1.6,3.9,352.9,0.46,20.6,27.7,"14:38:56",1
"19/07/07","14:50",0.0,29.1,60.3,997.9,339.3,2.3,4.4,331.7,0.40,20.7,27.6,"14:48:48",1
"19/07/07","15:00",0.0,29.7,61.0,997.9,344.8,2.0,4.8,346.1,0.51,21.4,27.7,"14:57:12",1
"19/07/07","15:10",0.0,30.1,60.0,997.9,354.4,2.2,5.4,344.2,0.53,21.5,28.1,"15:03:36",1
"19/07/07","15:20",0.0,30.0,58.7,998.2,2.6,1.8,3.9,355.0,0.43,21.1,27.9,"15:14:40",1
"19/07/07","15:30",0.0,29.7,55.8,998.2,359.1,2.1,4.5,343.9,0.46,20.0,28.2,"15:28:16",1
"19/07/07","15:40",0.0,30.1,58.1,998.2,335.5,1.1,3.2,5.2,0.30,21.0,28.2,"15:32:16",1
"19/07/07","15:50",0.0,29.7,57.9,998.4,343.6,2.0,4.3,348.3,0.43,20.6,28.1,"15:43:52",1
"19/07/07","16:00",0.0,30.4,56.2,998.4,332.3,1.3,3.1,350.6,0.45,20.7,28.3,"15:59:44",1
"19/07/07","16:10",0.0,30.0,56.9,998.4,342.6,2.0,5.0,342.5,0.39,20.6,28.3,"16:09:04",1
"19/07/07","16:20",0.0,30.6,53.1,999.1,314.6,1.3,2.9,335.9,0.36,20.0,28.4,"16:11:20",1
"19/07/07","16:30",0.0,31.5,50.5,998.9,289.2,1.0,2.6,314.6,0.33,20.0,28.4,"16:28:56",1
"19/07/07","16:40",0.0,31.1,50.9,998.9,283.2,1.6,4.9,349.3,0.31,19.8,28.4,"16:37:20",1
"19/07/07","16:50",0.0,30.7,50.2,998.6,252.2,1.5,4.0,222.0,0.26,19.2,28.3,"16:47:44",1
"19/07/07","17:00",0.0,30.0,52.7,998.6,321.4,1.6,3.4,347.4,0.18,19.3,28.4,"16:56:24",1
"19/07/07","17:10",0.0,30.1,53.4,998.2,336.2,1.5,3.5,350.3,0.21,19.6,28.0,"17:01:52",1
"19/07/07","17:20",0.0,30.1,52.1,997.9,300.7,1.5,3.7,334.3,0.19,19.2,28.2,"17:11:20",1
"19/07/07","17:30",0.0,30.1,53.4,998.4,269.1,1.3,2.7,286.5,0.06,19.6,28.2,"17:25:20",1
"19/07/07","17:40",0.0,30.2,52.2,998.2,281.6,1.1,4.1,329.2,0.05,19.4,27.9,"17:33:28",1
"19/07/07","17:50",0.0,29.8,51.0,998.9,276.8,1.2,3.1,337.5,0.06,18.6,28.0,"17:43:52",1
"19/07/07","18:00",0.0,29.6,53.4,998.2,269.8,1.2,2.6,234.2,0.06,19.2,28.2,"17:58:00",1
"19/07/07","18:10",0.0,29.6,56.4,998.4,329.6,1.7,5.0,345.8,0.05,20.1,28.1,"18:06:32",1
"19/07/07","18:20",0.0,29.2,57.3,998.4,346.1,1.7,5.1,349.3,0.03,19.9,28.0,"18:15:52",1
"19/07/07","18:30",0.0,29.0,59.3,998.2,348.9,1.5,3.1,348.0,0.02,20.3,27.9,"18:26:00",1
"19/07/07","18:40",0.0,28.8,59.7,997.9,353.6,1.3,2.9,335.5,0.01,20.2,27.9,"18:39:52",1
"19/07/07","18:50",0.0,28.2,61.8,997.9,3.8,1.6,3.4,38.8,0.01,20.2,27.6,"18:42:32",1
"19/07/07","19:00",0.0,27.6,63.8,997.9,348.7,1.5,3.1,333.1,0.01,20.2,27.6,"18:54:32",1
"19/07/07","19:10",0.0,27.0,65.8,998.2,340.8,2.0,4.2,337.5,0.00,20.1,27.5,"19:04:48",1
"19/07/07","19:20",0.0,26.6,67.4,998.6,332.3,1.8,4.2,347.4,0.00,20.1,27.4,"19:14:08",1
"19/07/07","19:30",0.0,26.4,67.9,998.6,350.0,1.6,2.7,350.1,0.00,20.0,27.1,"19:27:12",1
"19/07/07","19:40",0.0,26.1,68.9,998.6,347.8,1.3,3.6,340.9,0.00,20.0,27.0,"19:30:02",1
"19/07/07","19:50",0.0,25.7,69.8,999.3,350.8,2.0,3.7,344.2,0.00,19.8,26.8,"19:49:12",1
"19/07/07","20:00",0.0,25.3,71.0,999.3,1.8,1.8,4.3,353.9,0.00,19.7,26.8,"19:56:08",1
"19/07/07","20:10",0.0,25.1,71.5,999.6,359.0,2.2,5.1,346.3,0.00,19.6,26.5,"20:02:48",1
"19/07/07","20:20",0.0,24.8,72.5,999.6,346.7,2.0,4.0,359.2,0.00,19.6,26.3,"20:14:00",1
"19/07/07","20:30",0.0,24.6,73.1,1000.0,338.6,1.3,3.5,343.5,0.00,19.5,26.3,"20:28:48",1
"19/07/07","20:40",0.0,24.3,73.7,1000.0,334.4,1.6,3.5,349.5,0.00,19.3,26.3,"20:36:24",1
"19/07/07","20:50",0.0,24.1,74.0,1000.0,341.7,2.2,5.1,335.2,0.00,19.2,26.2,"20:49:12",1
"19/07/07","21:00",0.0,24.0,74.1,1000.5,347.2,2.1,5.1,340.7,0.00,19.1,26.0,"20:57:12",1
"19/07/07","21:10",0.0,23.7,74.6,1000.3,340.0,2.3,4.4,338.1,0.00,19.0,25.6,"21:04:00",1
"19/07/07","21:20",0.0,23.5,75.6,1000.5,352.3,2.1,4.5,356.0,0.00,19.0,25.8,"21:13:20",1
"19/07/07","21:30",0.0,23.3,76.4,1001.0,350.5,2.2,4.3,11.0,0.00,19.0,25.7,"21:23:20",1
"19/07/07","21:40",0.0,23.2,76.7,1001.0,350.0,1.8,4.8,339.4,0.00,18.9,25.5,"21:38:32",1
"19/07/07","21:50",0.0,23.1,77.1,1000.8,356.6,1.8,4.2,334.0,0.00,18.9,25.3,"21:44:40",1
"19/07/07","22:00",0.0,23.1,77.1,1001.5,341.0,2.5,5.0,344.2,0.00,18.9,25.2,"21:59:12",1
"19/07/07","22:10",0.0,23.1,77.2,1001.2,344.0,2.7,5.4,350.3,0.00,18.9,25.2,"22:04:24",1
"19/07/07","22:20",0.0,23.0,77.2,1001.5,340.5,2.5,4.4,337.1,0.00,18.8,25.0,"22:11:12",1
"19/07/07","22:30",0.0,22.8,77.7,1001.7,334.7,2.1,4.2,334.9,0.00,18.7,24.9,"22:22:40",1
"19/07/07","22:40",0.0,22.6,78.7,1001.7,333.5,1.7,4.4,343.1,0.00,18.8,24.9,"22:34:08",1
"19/07/07","22:50",0.0,22.4,79.3,1001.5,333.3,1.8,3.2,330.3,0.00,18.7,24.7,"22:42:24",1
"19/07/07","23:00",0.0,22.4,79.9,1001.5,320.1,1.8,3.1,348.4,0.00,18.8,24.5,"22:54:24",1
"19/07/07","23:10",0.0,22.3,80.3,1001.5,301.7,1.2,2.7,321.1,0.00,18.8,24.5,"23:08:08",1
"19/07/07","23:20",0.0,22.1,80.9,1001.7,303.9,1.2,2.1,343.9,0.00,18.7,24.4,"23:18:48",1
"19/07/07","23:30",0.0,21.9,81.8,1001.7,322.8,1.1,1.6,351.4,0.00,18.7,24.5,"23:24:08",1
"19/07/07","23:40",0.0,21.7,82.7,1001.7,304.3,1.2,1.7,306.1,0.00,18.7,24.3,"23:33:36",1
"19/07/07","23:50",0.0,21.5,83.6,1001.5,320.0,1.1,1.7,321.3,0.00,18.6,24.1,"23:42:40",1
"19/07/07","24:00",0.0,21.4,84.1,1001.2,335.2,1.2,1.9,317.4,0.00,18.6,24.2,"23:56:24",1
